Погода в Бока-Ратоне

США     26°21′41″N   80°04′56″W
темп.,
°C
ветер,
м/с
пор.,
м/с
влажн.,
%
обл.,
%
осадки,
мм/ч
давл.,
гПа
погр.,
м
15 мая, сб
сб1523:00+26св77723 0.2 1018979
02:00+25св6670100 0.2 1017988
05:00+25св6667100 0.1 1017726
08:00+26ссв87660 0.3 10191052
11:00+26св87667 0.1 10201233
14:00+26св886552 0.2 10201224
17:00+26ссв10106497 0.1 10191269
20:00+25св10106326 0.1 10191167
16 мая, вс
вс1623:00+25св886433 0.0 10201256
02:00+25св6662100 0.0 10181338
05:00+25св6666100 0.2 1018856
08:00+25всв6768100 0.7 10201065
11:00+25всв786781 1.2 10211056
14:00+25всв886486 1.8 10201252
17:00+25всв886658 0.4 10191234
20:00+25св996694 0.7 10201330
17 мая, пн
пн1723:00+24всв886582 0.1 10201269
02:00+24всв6664100 0.1 10191241
05:00+24всв5660100 0.0 10181387
08:00+24всв5555100 0.1 10201635
11:00+25всв665324 0.0 10201544
14:00+25всв665365 0.0 10191499
17:00+26всв6754100 0.0 10181525
20:00+25всв775841 0.0 10191454
18 мая, вт
вт1823:00+25всв885580 0.0 10201654
02:00+25в775982 0.0 10181513
05:00+25в7857100 0.0 10171378
08:00+26в7857100 0.0 10191614
11:00+26всв7754100 0.0 10201491
14:00+26всв7851100 0.0 10191251
17:00+27всв8956100 0.0 10171440
20:00+26всв9106775 0.1 10181348
19 мая, ср
ср1923:00+26в1011704 0.6 10191204
02:00+25в10117084 1.3 10181267
05:00+25всв10106882 0.4 10181308
08:00+25всв10106632 0.6 10191268
11:00+26всв996084 0.1 10201476
14:00+26всв996442 0.1 10191294
17:00+26всв10106761 0.2 10191254
20:00+26всв111268100 0.6 10191411